Time,TemperatureF,DewpointF,PressureIn,WindDirection,WindDirectionDegrees,WindSpeedMPH,WindSpeedGustMPH,Humidity,HourlyPrecipIn,Conditions,Clouds,dailyrainin,SoftwareType,DateUTC
2013-02-26 00:00:00,33.2,30.3,30.25,NNW,331,0.0,0.0,89,0.00,,,0.00,Wunderground v.1.15,2013-02-26 05:00:00,
2013-02-26 00:05:00,33.4,30.2,30.25,NNW,331,0.0,0.0,88,0.00,,,0.00,Wunderground v.1.15,2013-02-26 05:05:00,
2013-02-26 00:10:00,33.3,30.1,30.25,NNW,331,0.0,0.0,88,0.00,,,0.00,Wunderground v.1.15,2013-02-26 05:10:00,
2013-02-26 00:20:00,33.1,29.9,30.25,NNW,331,0.0,0.0,88,0.00,,,0.00,Wunderground v.1.15,2013-02-26 05:20:00,
2013-02-26 00:25:00,33.0,29.8,30.25,NNW,331,0.0,0.0,88,0.00,,,0.00,Wunderground v.1.15,2013-02-26 05:25:00,
2013-02-26 00:30:00,32.9,29.7,30.25,NNW,331,0.0,0.0,88,0.00,,,0.00,Wunderground v.1.15,2013-02-26 05:30:00,
2013-02-26 00:35:00,32.7,29.8,30.25,NNW,331,0.0,0.0,89,0.00,,,0.00,Wunderground v.1.15,2013-02-26 05:35:00,
2013-02-26 00:40:00,32.7,29.8,30.25,NNW,331,0.0,0.0,89,0.00,,,0.00,Wunderground v.1.15,2013-02-26 05:40:00,
2013-02-26 00:45:00,32.7,29.8,30.26,NNW,331,0.0,0.0,89,0.00,,,0.00,Wunderground v.1.15,2013-02-26 05:45:00,
2013-02-26 00:55:00,32.5,29.6,30.26,NNW,331,0.0,0.0,89,0.00,,,0.00,Wunderground v.1.15,2013-02-26 05:55:00,
2013-02-26 01:00:00,32.5,29.6,30.26,NNW,331,0.0,0.0,89,0.00,,,0.00,Wunderground v.1.15,2013-02-26 06:00:00,
2013-02-26 01:05:00,32.7,29.8,30.26,NNW,331,0.0,0.0,89,0.00,,,0.00,Wunderground v.1.15,2013-02-26 06:05:00,
2013-02-26 01:10:00,32.6,29.7,30.26,NNW,331,0.0,0.0,89,0.00,,,0.00,Wunderground v.1.15,2013-02-26 06:10:00,
2013-02-26 01:15:00,32.7,29.8,30.26,NNW,331,0.0,0.0,89,0.00,,,0.00,Wunderground v.1.15,2013-02-26 06:15:00,
2013-02-26 01:20:00,32.7,29.8,30.26,NNW,331,0.0,0.0,89,0.00,,,0.00,Wunderground v.1.15,2013-02-26 06:20:00,
2013-02-26 01:25:00,32.7,29.8,30.26,NNW,331,0.0,0.0,89,0.00,,,0.00,Wunderground v.1.15,2013-02-26 06:25:00,
2013-02-26 01:30:00,32.5,29.6,30.26,NNW,331,0.0,0.0,89,0.00,,,0.00,Wunderground v.1.15,2013-02-26 06:30:00,
2013-02-26 01:35:00,32.4,29.5,30.26,NNW,331,0.0,0.0,89,0.00,,,0.00,Wunderground v.1.15,2013-02-26 06:35:00,
2013-02-26 01:45:00,32.3,29.4,30.26,NNW,331,0.0,0.0,89,0.00,,,0.00,Wunderground v.1.15,2013-02-26 06:45:00,
2013-02-26 01:50:00,32.4,29.5,30.26,NNW,331,0.0,0.0,89,0.00,,,0.00,Wunderground v.1.15,2013-02-26 06:50:00,
2013-02-26 02:00:00,32.4,29.5,30.26,NNW,331,0.0,0.0,89,0.00,,,0.00,Wunderground v.1.15,2013-02-26 07:00:00,
2013-02-26 02:05:00,32.5,29.6,30.26,NNW,331,0.0,0.0,89,0.00,,,0.00,Wunderground v.1.15,2013-02-26 07:05:00,
2013-02-26 02:10:00,32.3,29.4,30.26,NNW,331,0.0,0.0,89,0.00,,,0.00,Wunderground v.1.15,2013-02-26 07:10:00,
2013-02-26 02:15:00,32.1,29.2,30.26,NNW,331,0.0,0.0,89,0.00,,,0.00,Wunderground v.1.15,2013-02-26 07:15:00,
2013-02-26 02:30:00,31.9,29.3,30.26,NNW,331,0.0,1.0,90,0.00,,,0.00,Wunderground v.1.15,2013-02-26 07:30:00,
2013-02-26 02:35:00,31.6,29.0,30.26,NNW,331,0.0,1.0,90,0.00,,,0.00,Wunderground v.1.15,2013-02-26 07:35:00,
2013-02-26 02:40:00,31.5,28.9,30.27,NNW,331,0.0,0.0,90,0.00,,,0.00,Wunderground v.1.15,2013-02-26 07:40:00,
2013-02-26 02:50:00,31.6,29.0,30.26,NNW,331,0.0,0.0,90,0.00,,,0.00,Wunderground v.1.15,2013-02-26 07:50:00,
2013-02-26 02:55:00,31.4,28.8,30.26,NNW,331,0.0,1.0,90,0.00,,,0.00,Wunderground v.1.15,2013-02-26 07:55:00,
2013-02-26 03:00:00,31.2,28.9,30.26,NNW,331,0.0,0.0,91,0.00,,,0.00,Wunderground v.1.15,2013-02-26 08:00:00,
2013-02-26 03:05:00,31.0,28.7,30.27,NNW,331,0.0,0.0,91,0.00,,,0.00,Wunderground v.1.15,2013-02-26 08:05:00,
2013-02-26 03:10:00,30.8,28.5,30.27,NNW,331,0.0,0.0,91,0.00,,,0.00,Wunderground v.1.15,2013-02-26 08:10:00,
2013-02-26 03:15:00,30.7,28.4,30.27,NNW,331,0.0,0.0,91,0.00,,,0.00,Wunderground v.1.15,2013-02-26 08:15:00,
2013-02-26 03:20:00,30.6,28.3,30.27,NNW,331,0.0,0.0,91,0.00,,,0.00,Wunderground v.1.15,2013-02-26 08:20:00,
2013-02-26 03:25:00,30.5,28.2,30.28,NNW,331,0.0,0.0,91,0.00,,,0.00,Wunderground v.1.15,2013-02-26 08:25:00,
2013-02-26 03:30:00,30.3,28.0,30.28,NNW,331,0.0,0.0,91,0.00,,,0.00,Wunderground v.1.15,2013-02-26 08:30:00,
2013-02-26 03:35:00,30.1,27.8,30.28,NNW,331,0.0,0.0,91,0.00,,,0.00,Wunderground v.1.15,2013-02-26 08:35:00,
2013-02-26 03:40:00,30.1,28.1,30.28,NNW,331,0.0,0.0,92,0.00,,,0.00,Wunderground v.1.15,2013-02-26 08:40:00,
2013-02-26 03:50:00,30.1,27.8,30.28,NNW,331,0.0,0.0,91,0.00,,,0.00,Wunderground v.1.15,2013-02-26 08:50:00,
2013-02-26 03:55:00,30.0,27.7,30.28,NNW,331,0.0,0.0,91,0.00,,,0.00,Wunderground v.1.15,2013-02-26 08:55:00,
2013-02-26 04:00:00,29.8,27.2,30.29,NNW,331,0.0,0.0,90,0.00,,,0.00,Wunderground v.1.15,2013-02-26 09:00:00,
2013-02-26 04:05:00,29.6,27.3,30.29,NNW,331,0.0,0.0,91,0.00,,,0.00,Wunderground v.1.15,2013-02-26 09:05:00,
2013-02-26 04:10:00,29.4,27.1,30.29,NNW,331,0.0,1.0,91,0.00,,,0.00,Wunderground v.1.15,2013-02-26 09:10:00,
2013-02-26 04:15:00,29.1,26.8,30.28,NNW,331,0.0,1.0,91,0.00,,,0.00,Wunderground v.1.15,2013-02-26 09:15:00,
2013-02-26 04:20:00,29.0,27.0,30.28,NNW,331,0.0,0.0,92,0.00,,,0.00,Wunderground v.1.15,2013-02-26 09:20:00,
2013-02-26 04:25:00,28.8,26.8,30.28,NNW,331,0.0,0.0,92,0.00,,,0.00,Wunderground v.1.15,2013-02-26 09:25:00,
2013-02-26 04:30:00,28.6,26.6,30.29,NNW,331,0.0,0.0,92,0.00,,,0.00,Wunderground v.1.15,2013-02-26 09:30:00,
2013-02-26 04:35:00,28.6,26.6,30.29,NNW,331,0.0,0.0,92,0.00,,,0.00,Wunderground v.1.15,2013-02-26 09:35:00,
2013-02-26 04:45:00,28.5,26.5,30.29,NNW,331,0.0,0.0,92,0.00,,,0.00,Wunderground v.1.15,2013-02-26 09:45:00,
2013-02-26 04:50:00,28.5,26.7,30.30,NNW,331,0.0,0.0,93,0.00,,,0.00,Wunderground v.1.15,2013-02-26 09:50:00,
2013-02-26 04:55:00,28.5,26.5,30.30,NNW,331,0.0,0.0,92,0.00,,,0.00,Wunderground v.1.15,2013-02-26 09:55:00,
2013-02-26 05:00:00,28.6,26.6,30.30,NNW,331,0.0,0.0,92,0.00,,,0.00,Wunderground v.1.15,2013-02-26 10:00:00,
2013-02-26 05:05:00,28.5,26.5,30.30,NNW,331,0.0,2.0,92,0.00,,,0.00,Wunderground v.1.15,2013-02-26 10:05:00,
2013-02-26 05:10:00,28.5,26.5,30.30,NNW,331,1.0,1.0,92,0.00,,,0.00,Wunderground v.1.15,2013-02-26 10:10:00,
2013-02-26 05:15:00,28.5,26.5,30.30,NNW,331,0.0,1.0,92,0.00,,,0.00,Wunderground v.1.15,2013-02-26 10:15:00,
2013-02-26 05:25:00,28.5,26.5,30.31,NNW,331,0.0,0.0,92,0.00,,,0.00,Wunderground v.1.15,2013-02-26 10:25:00,
2013-02-26 05:35:00,28.6,26.6,30.32,NNW,331,0.0,0.0,92,0.00,,,0.00,Wunderground v.1.15,2013-02-26 10:35:00,
2013-02-26 05:40:00,28.7,26.7,30.32,NNW,331,0.0,0.0,92,0.00,,,0.00,Wunderground v.1.15,2013-02-26 10:40:00,
2013-02-26 05:45:00,28.8,26.8,30.32,NNW,331,0.0,0.0,92,0.00,,,0.00,Wunderground v.1.15,2013-02-26 10:45:00,
2013-02-26 05:55:00,28.7,26.7,30.31,NNW,331,0.0,0.0,92,0.00,,,0.00,Wunderground v.1.15,2013-02-26 10:55:00,
2013-02-26 06:05:00,29.0,27.0,30.32,NNW,331,0.0,0.0,92,0.00,,,0.00,Wunderground v.1.15,2013-02-26 11:05:00,
2013-02-26 06:10:00,28.9,26.9,30.32,NNW,331,0.0,0.0,92,0.00,,,0.00,Wunderground v.1.15,2013-02-26 11:10:00,
2013-02-26 06:15:00,28.8,26.8,30.32,NNW,331,0.0,0.0,92,0.00,,,0.00,Wunderground v.1.15,2013-02-26 11:15:00,
2013-02-26 06:20:00,28.7,26.7,30.32,NNW,331,0.0,0.0,92,0.00,,,0.00,Wunderground v.1.15,2013-02-26 11:20:00,
2013-02-26 06:25:00,28.7,26.7,30.32,NNW,331,0.0,0.0,92,0.00,,,0.00,Wunderground v.1.15,2013-02-26 11:25:00,
2013-02-26 06:30:00,28.7,26.7,30.32,NNW,331,0.0,0.0,92,0.00,,,0.00,Wunderground v.1.15,2013-02-26 11:30:00,
2013-02-26 06:35:00,28.7,26.7,30.32,NNW,331,0.0,0.0,92,0.00,,,0.00,Wunderground v.1.15,2013-02-26 11:35:00,
2013-02-26 06:40:00,28.7,26.7,30.32,NNW,331,0.0,0.0,92,0.00,,,0.00,Wunderground v.1.15,2013-02-26 11:40:00,
2013-02-26 06:45:00,28.8,26.8,30.32,NNW,331,0.0,0.0,92,0.00,,,0.00,Wunderground v.1.15,2013-02-26 11:45:00,
2013-02-26 06:50:00,28.9,26.9,30.32,NNW,331,0.0,0.0,92,0.00,,,0.00,Wunderground v.1.15,2013-02-26 11:50:00,
2013-02-26 06:55:00,29.1,27.1,30.32,NNW,331,0.0,0.0,92,0.00,,,0.00,Wunderground v.1.15,2013-02-26 11:55:00,
2013-02-26 07:00:00,29.3,27.0,30.32,NNW,331,0.0,0.0,91,0.00,,,0.00,Wunderground v.1.15,2013-02-26 12:00:00,
2013-02-26 07:05:00,29.5,27.2,30.32,NNW,331,0.0,0.0,91,0.00,,,0.00,Wunderground v.1.15,2013-02-26 12:05:00,
2013-02-26 07:10:00,29.4,27.1,30.32,NNW,331,0.0,0.0,91,0.00,,,0.00,Wunderground v.1.15,2013-02-26 12:10:00,
2013-02-26 07:15:00,29.7,27.4,30.32,NNW,331,0.0,0.0,91,0.00,,,0.00,Wunderground v.1.15,2013-02-26 12:15:00,
2013-02-26 07:20:00,29.8,27.2,30.33,NNW,331,0.0,0.0,90,0.00,,,0.00,Wunderground v.1.15,2013-02-26 12:20:00,
2013-02-26 07:25:00,29.6,27.0,30.33,NNW,331,0.0,0.0,90,0.00,,,0.00,Wunderground v.1.15,2013-02-26 12:25:00,
2013-02-26 07:30:00,29.5,26.9,30.33,NNW,331,0.0,0.0,90,0.00,,,0.00,Wunderground v.1.15,2013-02-26 12:30:00,
2013-02-26 07:40:00,29.8,27.2,30.33,NNW,331,0.0,0.0,90,0.00,,,0.00,Wunderground v.1.15,2013-02-26 12:40:00,
2013-02-26 07:50:00,30.1,27.8,30.33,NNW,331,0.0,0.0,91,0.00,,,0.00,Wunderground v.1.15,2013-02-26 12:50:00,
2013-02-26 07:55:00,30.5,27.9,30.33,NNW,331,0.0,0.0,90,0.00,,,0.00,Wunderground v.1.15,2013-02-26 12:55:00,
2013-02-26 08:05:00,31.3,28.4,30.33,NNW,331,0.0,0.0,89,0.00,,,0.00,Wunderground v.1.15,2013-02-26 13:05:00,
2013-02-26 08:10:00,31.8,28.9,30.34,NNW,331,0.0,0.0,89,0.00,,,0.00,Wunderground v.1.15,2013-02-26 13:10:00,
2013-02-26 08:15:00,32.4,29.2,30.33,NNW,331,0.0,0.0,88,0.00,,,0.00,Wunderground v.1.15,2013-02-26 13:15:00,
2013-02-26 08:20:00,33.1,29.7,30.34,NNW,332,0.0,0.0,87,0.00,,,0.00,Wunderground v.1.15,2013-02-26 13:20:00,
2013-02-26 08:30:00,34.7,30.4,30.34,NNW,332,0.0,0.0,84,0.00,,,0.00,Wunderground v.1.15,2013-02-26 13:30:00,
2013-02-26 08:35:00,35.2,30.3,30.33,NNW,332,0.0,0.0,82,0.00,,,0.00,Wunderground v.1.15,2013-02-26 13:35:00,
2013-02-26 08:40:00,35.3,29.7,30.34,NNW,332,0.0,0.0,80,0.00,,,0.00,Wunderground v.1.15,2013-02-26 13:40:00,
2013-02-26 08:45:00,35.6,29.7,30.34,NNW,332,0.0,0.0,79,0.00,,,0.00,Wunderground v.1.15,2013-02-26 13:45:00,
2013-02-26 08:55:00,36.2,29.0,30.34,NNW,332,0.0,1.0,75,0.00,,,0.00,Wunderground v.1.15,2013-02-26 13:55:00,
2013-02-26 09:10:00,34.7,27.9,30.34,NNW,332,0.0,0.0,76,0.00,,,0.00,Wunderground v.1.15,2013-02-26 14:10:00,
2013-02-26 09:15:00,35.3,28.5,30.34,NNW,332,0.0,0.0,76,0.00,,,0.00,Wunderground v.1.15,2013-02-26 14:15:00,
2013-02-26 09:20:00,35.8,29.0,30.34,NNW,332,0.0,0.0,76,0.00,,,0.00,Wunderground v.1.15,2013-02-26 14:20:00,
2013-02-26 09:25:00,35.5,28.7,30.34,NNW,332,0.0,0.0,76,0.00,,,0.00,Wunderground v.1.15,2013-02-26 14:25:00,
2013-02-26 09:30:00,35.3,28.8,30.34,NNW,332,0.0,0.0,77,0.00,,,0.00,Wunderground v.1.15,2013-02-26 14:30:00,
2013-02-26 09:35:00,35.3,28.8,30.34,NNW,332,0.0,0.0,77,0.00,,,0.00,Wunderground v.1.15,2013-02-26 14:35:00,
2013-02-26 09:40:00,35.2,28.4,30.34,NNW,332,0.0,0.0,76,0.00,,,0.00,Wunderground v.1.15,2013-02-26 14:40:00,
2013-02-26 09:45:00,35.3,28.5,30.34,NNW,332,0.0,0.0,76,0.00,,,0.00,Wunderground v.1.15,2013-02-26 14:45:00,
2013-02-26 09:50:00,35.3,28.5,30.34,NNW,332,0.0,0.0,76,0.00,,,0.00,Wunderground v.1.15,2013-02-26 14:50:00,
2013-02-26 09:55:00,35.5,29.0,30.34,NNW,332,0.0,0.0,77,0.00,,,0.00,Wunderground v.1.15,2013-02-26 14:55:00,
2013-02-26 10:00:00,35.9,28.1,30.33,NNW,332,0.0,0.0,73,0.00,,,0.00,Wunderground v.1.15,2013-02-26 15:00:00,
2013-02-26 10:05:00,36.1,27.6,30.33,NNW,332,1.0,3.0,71,0.00,,,0.00,Wunderground v.1.15,2013-02-26 15:05:00,
2013-02-26 10:10:00,35.7,27.6,30.33,NNW,332,1.0,3.0,72,0.00,,,0.00,Wunderground v.1.15,2013-02-26 15:10:00,
2013-02-26 10:15:00,35.5,27.7,30.33,ESE,105,2.0,3.0,73,0.00,,,0.00,Wunderground v.1.15,2013-02-26 15:15:00,
2013-02-26 10:20:00,35.6,27.5,30.33,North,5,1.0,1.0,72,0.00,,,0.00,Wunderground v.1.15,2013-02-26 15:20:00,
2013-02-26 10:25:00,35.9,27.1,30.33,East,90,1.0,1.0,70,0.00,,,0.00,Wunderground v.1.15,2013-02-26 15:25:00,
2013-02-26 10:30:00,36.2,27.4,30.33,NE,39,1.0,1.0,70,0.00,,,0.00,Wunderground v.1.15,2013-02-26 15:30:00,
2013-02-26 10:35:00,36.7,27.5,30.32,NNE,15,1.0,2.0,69,0.00,,,0.00,Wunderground v.1.15,2013-02-26 15:35:00,
2013-02-26 10:40:00,36.5,27.3,30.32,NE,35,2.0,2.0,69,0.00,,,0.00,Wunderground v.1.15,2013-02-26 15:40:00,
2013-02-26 10:45:00,36.5,27.3,30.32,North,360,2.0,2.0,69,0.00,,,0.00,Wunderground v.1.15,2013-02-26 15:45:00,
2013-02-26 10:50:00,37.1,28.2,30.32,NNE,21,1.0,2.0,70,0.00,,,0.00,Wunderground v.1.15,2013-02-26 15:50:00,
2013-02-26 10:55:00,37.4,28.5,30.32,NNW,340,1.0,1.0,70,0.00,,,0.00,Wunderground v.1.15,2013-02-26 15:55:00,
2013-02-26 11:00:00,37.5,27.9,30.32,ENE,75,2.0,2.0,68,0.00,,,0.00,Wunderground v.1.15,2013-02-26 16:00:00,
2013-02-26 11:05:00,37.8,28.2,30.32,NE,36,2.0,2.0,68,0.00,,,0.00,Wunderground v.1.15,2013-02-26 16:05:00,
2013-02-26 11:10:00,38.0,28.0,30.32,NE,53,1.0,1.0,67,0.00,,,0.00,Wunderground v.1.15,2013-02-26 16:10:00,
2013-02-26 11:15:00,37.4,27.8,30.32,ENE,58,2.0,2.0,68,0.00,,,0.00,Wunderground v.1.15,2013-02-26 16:15:00,
2013-02-26 11:20:00,37.3,27.7,30.32,East,98,2.0,2.0,68,0.00,,,0.00,Wunderground v.1.15,2013-02-26 16:20:00,
2013-02-26 11:25:00,37.2,27.6,30.32,East,84,2.0,2.0,68,0.00,,,0.00,Wunderground v.1.15,2013-02-26 16:25:00,
2013-02-26 11:30:00,37.1,27.5,30.32,SE,134,3.0,3.0,68,0.00,,,0.00,Wunderground v.1.15,2013-02-26 16:30:00,
2013-02-26 11:40:00,37.4,28.2,30.31,NE,46,3.0,3.0,69,0.00,,,0.00,Wunderground v.1.15,2013-02-26 16:40:00,
2013-02-26 11:50:00,37.1,28.2,30.31,ENE,61,4.0,4.0,70,0.00,,,0.00,Wunderground v.1.15,2013-02-26 16:50:00,
2013-02-26 11:55:00,37.4,27.8,30.31,East,90,3.0,5.0,68,0.00,,,0.00,Wunderground v.1.15,2013-02-26 16:55:00,
2013-02-26 12:05:00,37.7,28.4,30.31,North,5,2.0,4.0,69,0.00,,,0.00,Wunderground v.1.15,2013-02-26 17:05:00,
2013-02-26 12:10:00,37.9,27.9,30.31,ESE,102,2.0,4.0,67,0.00,,,0.00,Wunderground v.1.15,2013-02-26 17:10:00,
2013-02-26 12:20:00,38.0,28.0,30.31,ENE,70,2.0,3.0,67,0.00,,,0.00,Wunderground v.1.15,2013-02-26 17:20:00,
2013-02-26 12:25:00,38.1,27.7,30.30,ESE,111,2.0,4.0,66,0.00,,,0.00,Wunderground v.1.15,2013-02-26 17:25:00,
2013-02-26 12:35:00,37.5,28.2,30.30,ESE,111,2.0,2.0,69,0.00,,,0.00,Wunderground v.1.15,2013-02-26 17:35:00,
2013-02-26 12:40:00,37.4,27.4,30.30,SE,134,2.0,2.0,67,0.00,,,0.00,Wunderground v.1.15,2013-02-26 17:40:00,
2013-02-26 12:45:00,37.7,27.7,30.29,SE,134,2.0,2.0,67,0.00,,,0.00,Wunderground v.1.15,2013-02-26 17:45:00,
2013-02-26 12:50:00,38.8,29.1,30.29,NE,39,0.0,2.0,68,0.00,,,0.00,Wunderground v.1.15,2013-02-26 17:50:00,
2013-02-26 12:55:00,39.3,28.5,30.28,SE,138,2.0,10.0,65,0.00,,,0.00,Wunderground v.1.15,2013-02-26 17:55:00,
2013-02-26 13:00:00,37.8,27.5,30.28,SE,126,5.0,6.0,66,0.00,,,0.00,Wunderground v.1.15,2013-02-26 18:00:00,
2013-02-26 13:05:00,37.1,27.2,30.28,SE,132,6.0,6.0,67,0.00,,,0.00,Wunderground v.1.15,2013-02-26 18:05:00,
2013-02-26 13:10:00,37.1,27.9,30.28,ESE,103,4.0,5.0,69,0.00,,,0.00,Wunderground v.1.15,2013-02-26 18:10:00,
2013-02-26 13:21:00,38.3,29.4,30.28,NE,47,1.0,1.0,70,0.00,,,0.00,Wunderground v.1.15,2013-02-26 18:21:00,
2013-02-26 13:30:00,39.3,28.5,30.29,SSE,147,2.0,5.0,65,0.00,,,0.00,Wunderground v.1.15,2013-02-26 18:30:00,
2013-02-26 13:40:00,39.2,28.8,30.29,ESE,117,2.0,8.0,66,0.00,,,0.00,Wunderground v.1.15,2013-02-26 18:40:00,
2013-02-26 13:50:00,37.8,27.5,30.29,SE,144,6.0,6.0,66,0.00,,,0.00,Wunderground v.1.15,2013-02-26 18:50:00,
2013-02-26 13:55:00,37.5,27.2,30.29,SE,141,5.0,6.0,66,0.00,,,0.00,Wunderground v.1.15,2013-02-26 18:55:00,
2013-02-26 14:00:00,37.5,27.9,30.29,ESE,121,4.0,5.0,68,0.00,,,0.00,Wunderground v.1.15,2013-02-26 19:00:00,
2013-02-26 14:05:00,37.3,27.7,30.29,SE,126,5.0,6.0,68,0.00,,,0.00,Wunderground v.1.15,2013-02-26 19:05:00,
2013-02-26 14:10:00,37.1,27.9,30.29,SSE,153,5.0,5.0,69,0.00,,,0.00,Wunderground v.1.15,2013-02-26 19:10:00,
2013-02-26 14:15:00,36.9,28.0,30.29,ESE,103,4.0,5.0,70,0.00,,,0.00,Wunderground v.1.15,2013-02-26 19:15:00,
2013-02-26 14:20:00,36.9,28.0,30.29,SE,128,3.0,3.0,70,0.00,,,0.00,Wunderground v.1.15,2013-02-26 19:20:00,
2013-02-26 14:25:00,36.8,27.9,30.29,ESE,117,3.0,4.0,70,0.00,,,0.00,Wunderground v.1.15,2013-02-26 19:25:00,
2013-02-26 14:35:00,36.7,28.2,30.29,SE,132,2.0,3.0,71,0.00,,,0.00,Wunderground v.1.15,2013-02-26 19:35:00,
2013-02-26 14:46:00,36.6,28.8,30.28,SSE,155,3.0,3.0,73,0.00,,,0.00,Wunderground v.1.15,2013-02-26 19:46:00,
2013-02-26 14:50:00,36.5,28.7,30.28,SSE,155,2.0,2.0,73,0.00,,,0.00,Wunderground v.1.15,2013-02-26 19:50:00,
2013-02-26 14:55:00,36.5,28.7,30.28,SE,138,2.0,4.0,73,0.00,,,0.00,Wunderground v.1.15,2013-02-26 19:55:00,
2013-02-26 15:00:00,36.4,28.9,30.27,SSE,148,3.0,3.0,74,0.00,,,0.00,Wunderground v.1.15,2013-02-26 20:00:00,
2013-02-26 15:10:00,36.4,28.9,30.27,SSE,152,3.0,3.0,74,0.00,,,0.00,Wunderground v.1.15,2013-02-26 20:10:00,
2013-02-26 15:15:00,36.4,28.9,30.26,SSE,159,2.0,3.0,74,0.00,,,0.00,Wunderground v.1.15,2013-02-26 20:15:00,
2013-02-26 15:20:00,36.4,28.9,30.26,SSE,164,2.0,4.0,74,0.00,,,0.00,Wunderground v.1.15,2013-02-26 20:20:00,
2013-02-26 15:25:00,36.4,29.2,30.26,SSE,154,3.0,4.0,75,0.00,,,0.00,Wunderground v.1.15,2013-02-26 20:25:00,
2013-02-26 15:30:00,36.3,29.1,30.26,SE,130,4.0,4.0,75,0.00,,,0.00,Wunderground v.1.15,2013-02-26 20:30:00,
2013-02-26 15:40:00,36.2,29.0,30.26,SE,131,2.0,3.0,75,0.00,,,0.00,Wunderground v.1.15,2013-02-26 20:40:00,
2013-02-26 15:45:00,36.2,29.0,30.27,SE,126,3.0,3.0,75,0.00,,,0.00,Wunderground v.1.15,2013-02-26 20:45:00,
2013-02-26 15:50:00,36.1,28.9,30.26,ESE,118,3.0,5.0,75,0.00,,,0.00,Wunderground v.1.15,2013-02-26 20:50:00,
2013-02-26 15:55:00,36.0,29.2,30.27,NNE,33,3.0,4.0,76,0.00,,,0.00,Wunderground v.1.15,2013-02-26 20:55:00,
2013-02-26 16:00:00,36.0,29.2,30.26,ESE,121,3.0,3.0,76,0.00,,,0.00,Wunderground v.1.15,2013-02-26 21:00:00,
2013-02-26 16:05:00,35.9,29.4,30.26,ESE,113,3.0,4.0,77,0.00,,,0.00,Wunderground v.1.15,2013-02-26 21:05:00,
2013-02-26 16:10:00,35.8,29.3,30.26,East,86,2.0,2.0,77,0.00,,,0.00,Wunderground v.1.15,2013-02-26 21:10:00,
2013-02-26 16:20:00,35.6,28.8,30.26,ESE,103,2.0,2.0,76,0.00,,,0.00,Wunderground v.1.15,2013-02-26 21:20:00,
2013-02-26 16:25:00,35.6,28.8,30.25,East,86,2.0,5.0,76,0.00,,,0.00,Wunderground v.1.15,2013-02-26 21:25:00,
2013-02-26 16:30:00,35.6,29.1,30.26,ENE,61,1.0,1.0,77,0.00,,,0.00,Wunderground v.1.15,2013-02-26 21:30:00,
2013-02-26 16:35:00,35.7,29.2,30.26,ENE,61,0.0,1.0,77,0.00,,,0.00,Wunderground v.1.15,2013-02-26 21:35:00,
2013-02-26 16:40:00,35.8,29.0,30.26,ENE,67,0.0,0.0,76,0.00,,,0.00,Wunderground v.1.15,2013-02-26 21:40:00,
2013-02-26 16:45:00,35.8,29.0,30.26,ENE,67,1.0,2.0,76,0.00,,,0.00,Wunderground v.1.15,2013-02-26 21:45:00,
2013-02-26 16:50:00,35.6,29.1,30.26,ENE,67,1.0,1.0,77,0.00,,,0.00,Wunderground v.1.15,2013-02-26 21:50:00,
2013-02-26 16:55:00,35.6,29.1,30.26,ENE,67,1.0,1.0,77,0.00,,,0.00,Wunderground v.1.15,2013-02-26 21:55:00,
2013-02-26 17:00:00,35.6,29.1,30.26,ENE,67,0.0,0.0,77,0.00,,,0.00,Wunderground v.1.15,2013-02-26 22:00:00,
2013-02-26 17:05:00,35.6,29.4,30.26,ENE,67,0.0,0.0,78,0.00,,,0.00,Wunderground v.1.15,2013-02-26 22:05:00,
2013-02-26 17:10:00,35.6,29.4,30.25,ENE,67,0.0,0.0,78,0.00,,,0.00,Wunderground v.1.15,2013-02-26 22:10:00,
2013-02-26 17:15:00,35.7,29.5,30.25,ENE,67,0.0,0.0,78,0.00,,,0.00,Wunderground v.1.15,2013-02-26 22:15:00,
2013-02-26 17:20:00,35.5,29.9,30.25,ENE,67,0.0,0.0,80,0.00,,,0.00,Wunderground v.1.15,2013-02-26 22:20:00,
2013-02-26 17:25:00,35.3,30.1,30.25,ENE,67,0.0,1.0,81,0.00,,,0.00,Wunderground v.1.15,2013-02-26 22:25:00,
2013-02-26 17:30:00,35.1,30.2,30.25,ENE,67,0.0,0.0,82,0.00,,,0.00,Wunderground v.1.15,2013-02-26 22:30:00,
2013-02-26 17:35:00,34.9,29.7,30.25,ENE,67,0.0,0.0,81,0.00,,,0.00,Wunderground v.1.15,2013-02-26 22:35:00,
2013-02-26 17:40:00,34.7,29.8,30.25,ENE,67,0.0,0.0,82,0.00,,,0.00,Wunderground v.1.15,2013-02-26 22:40:00,
2013-02-26 17:45:00,34.7,29.8,30.26,ENE,71,0.0,0.0,82,0.00,,,0.00,Wunderground v.1.15,2013-02-26 22:45:00,
2013-02-26 17:50:00,34.6,30.0,30.25,ENE,71,0.0,0.0,83,0.00,,,0.00,Wunderground v.1.15,2013-02-26 22:50:00,
2013-02-26 17:55:00,34.2,29.9,30.25,ENE,71,0.0,0.0,84,0.00,,,0.00,Wunderground v.1.15,2013-02-26 22:55:00,
2013-02-26 18:00:00,34.2,29.9,30.25,ENE,71,0.0,0.0,84,0.00,,,0.00,Wunderground v.1.15,2013-02-26 23:00:00,
2013-02-26 18:10:00,34.3,31.4,30.25,ENE,71,0.0,0.0,89,0.00,,,0.00,Wunderground v.1.15,2013-02-26 23:10:00,
2013-02-26 18:15:00,34.3,29.7,30.25,ENE,71,0.0,1.0,83,0.00,,,0.00,Wunderground v.1.15,2013-02-26 23:15:00,
2013-02-26 18:25:00,34.5,29.3,30.25,ESE,110,1.0,3.0,81,0.00,,,0.00,Wunderground v.1.15,2013-02-26 23:25:00,
2013-02-26 18:30:00,34.6,29.4,30.25,East,86,1.0,3.0,81,0.00,,,0.00,Wunderground v.1.15,2013-02-26 23:30:00,
2013-02-26 18:35:00,34.5,29.3,30.25,ENE,78,1.0,1.0,81,0.00,,,0.00,Wunderground v.1.15,2013-02-26 23:35:00,
2013-02-26 18:40:00,34.5,29.3,30.25,ENE,78,0.0,1.0,81,0.00,,,0.00,Wunderground v.1.15,2013-02-26 23:40:00,
2013-02-26 18:50:00,34.5,29.3,30.25,ENE,78,0.0,0.0,81,0.00,,,0.00,Wunderground v.1.15,2013-02-26 23:50:00,
2013-02-26 19:00:00,34.6,29.4,30.25,ENE,78,0.0,0.0,81,0.00,,,0.00,Wunderground v.1.15,2013-02-27 00:00:00,
2013-02-26 19:05:00,34.6,29.4,30.25,ENE,78,0.0,0.0,81,0.00,,,0.00,Wunderground v.1.15,2013-02-27 00:05:00,
2013-02-26 19:10:00,34.7,29.8,30.25,ENE,78,0.0,0.0,82,0.00,,,0.00,Wunderground v.1.15,2013-02-27 00:10:00,
2013-02-26 19:15:00,34.7,29.8,30.24,ENE,78,0.0,0.0,82,0.00,,,0.00,Wunderground v.1.15,2013-02-27 00:15:00,
2013-02-26 19:20:00,34.7,29.8,30.24,ENE,78,0.0,0.0,82,0.00,,,0.00,Wunderground v.1.15,2013-02-27 00:20:00,
2013-02-26 19:25:00,34.7,29.8,30.24,ENE,78,0.0,0.0,82,0.00,,,0.00,Wunderground v.1.15,2013-02-27 00:25:00,
2013-02-26 19:30:00,34.8,29.6,30.24,ENE,78,0.0,0.0,81,0.00,,,0.00,Wunderground v.1.15,2013-02-27 00:30:00,
2013-02-26 19:35:00,34.7,29.8,30.24,ENE,78,0.0,0.0,82,0.00,,,0.00,Wunderground v.1.15,2013-02-27 00:35:00,
2013-02-26 19:40:00,34.7,30.1,30.24,ENE,78,0.0,0.0,83,0.00,,,0.00,Wunderground v.1.15,2013-02-27 00:40:00,
2013-02-26 19:45:00,34.6,30.0,30.25,ENE,78,0.0,0.0,83,0.00,,,0.00,Wunderground v.1.15,2013-02-27 00:45:00,
2013-02-26 19:50:00,34.5,29.9,30.25,ENE,78,0.0,0.0,83,0.00,,,0.00,Wunderground v.1.15,2013-02-27 00:50:00,
2013-02-26 19:55:00,34.4,29.5,30.25,ENE,78,0.0,0.0,82,0.00,,,0.00,Wunderground v.1.15,2013-02-27 00:55:00,
2013-02-26 20:00:00,34.3,29.4,30.25,ENE,78,0.0,0.0,82,0.00,,,0.00,Wunderground v.1.15,2013-02-27 01:00:00,
2013-02-26 20:05:00,34.3,29.4,30.25,ENE,78,0.0,1.0,82,0.00,,,0.00,Wunderground v.1.15,2013-02-27 01:05:00,
2013-02-26 20:10:00,34.2,29.3,30.26,ENE,78,0.0,0.0,82,0.00,,,0.00,Wunderground v.1.15,2013-02-27 01:10:00,
2013-02-26 20:20:00,34.1,29.2,30.26,ENE,74,0.0,0.0,82,0.00,,,0.00,Wunderground v.1.15,2013-02-27 01:20:00,
2013-02-26 20:25:00,34.1,29.2,30.26,East,96,0.0,2.0,82,0.00,,,0.00,Wunderground v.1.15,2013-02-27 01:25:00,
2013-02-26 20:30:00,34.0,29.1,30.26,East,96,1.0,1.0,82,0.00,,,0.00,Wunderground v.1.15,2013-02-27 01:30:00,
2013-02-26 20:35:00,33.9,29.0,30.26,ESE,113,1.0,1.0,82,0.00,,,0.00,Wunderground v.1.15,2013-02-27 01:35:00,
2013-02-26 20:40:00,33.8,28.9,30.26,East,93,1.0,1.0,82,0.00,,,0.00,Wunderground v.1.15,2013-02-27 01:40:00,
2013-02-26 20:50:00,33.8,29.2,30.26,East,93,0.0,0.0,83,0.00,,,0.00,Wunderground v.1.15,2013-02-27 01:50:00,
2013-02-26 20:55:00,33.7,29.1,30.26,East,93,0.0,0.0,83,0.00,,,0.00,Wunderground v.1.15,2013-02-27 01:55:00,
2013-02-26 21:00:00,33.8,29.2,30.26,East,93,0.0,0.0,83,0.00,,,0.00,Wunderground v.1.15,2013-02-27 02:00:00,
2013-02-26 21:05:00,33.8,29.2,30.25,East,93,0.0,0.0,83,0.00,,,0.00,Wunderground v.1.15,2013-02-27 02:05:00,
2013-02-26 21:10:00,33.8,30.6,30.25,East,93,0.0,0.0,88,0.00,,,0.00,Wunderground v.1.15,2013-02-27 02:10:00,
2013-02-26 21:20:00,34.0,29.4,30.24,East,93,0.0,2.0,83,0.00,,,0.00,Wunderground v.1.15,2013-02-27 02:20:00,
2013-02-26 21:25:00,34.0,29.1,30.24,East,93,0.0,2.0,82,0.00,,,0.00,Wunderground v.1.15,2013-02-27 02:25:00,
2013-02-26 21:35:00,33.9,29.0,30.23,East,85,1.0,1.0,82,0.00,,,0.00,Wunderground v.1.15,2013-02-27 02:35:00,
2013-02-26 21:40:00,33.9,29.0,30.23,ENE,78,1.0,1.0,82,0.00,,,0.00,Wunderground v.1.15,2013-02-27 02:40:00,
2013-02-26 21:45:00,33.9,29.0,30.22,ENE,78,1.0,2.0,82,0.00,,,0.00,Wunderground v.1.15,2013-02-27 02:45:00,
2013-02-26 21:50:00,33.9,29.0,30.22,ENE,78,0.0,0.0,82,0.00,,,0.00,Wunderground v.1.15,2013-02-27 02:50:00,
2013-02-26 21:55:00,33.8,28.9,30.22,ENE,78,0.0,0.0,82,0.00,,,0.00,Wunderground v.1.15,2013-02-27 02:55:00,
2013-02-26 22:00:00,33.8,28.9,30.22,ENE,78,0.0,0.0,82,0.00,,,0.00,Wunderground v.1.15,2013-02-27 03:00:00,
2013-02-26 22:05:00,33.6,28.7,30.22,ENE,78,1.0,1.0,82,0.00,,,0.00,Wunderground v.1.15,2013-02-27 03:05:00,
2013-02-26 22:10:00,33.4,28.5,30.22,ENE,68,1.0,1.0,82,0.00,,,0.00,Wunderground v.1.15,2013-02-27 03:10:00,
2013-02-26 22:15:00,33.3,28.7,30.22,ENE,68,1.0,1.0,83,0.00,,,0.00,Wunderground v.1.15,2013-02-27 03:15:00,
2013-02-26 22:20:00,33.2,28.6,30.21,SE,127,1.0,1.0,83,0.00,,,0.00,Wunderground v.1.15,2013-02-27 03:20:00,
2013-02-26 22:25:00,33.2,28.6,30.21,ENE,67,1.0,1.0,83,0.00,,,0.00,Wunderground v.1.15,2013-02-27 03:25:00,
2013-02-26 22:30:00,33.2,28.6,30.21,East,88,1.0,1.0,83,0.00,,,0.00,Wunderground v.1.15,2013-02-27 03:30:00,
2013-02-26 22:35:00,33.2,28.6,30.21,East,96,1.0,2.0,83,0.00,,,0.00,Wunderground v.1.15,2013-02-27 03:35:00,
2013-02-26 22:40:00,33.2,28.6,30.21,East,94,1.0,1.0,83,0.00,,,0.00,Wunderground v.1.15,2013-02-27 03:40:00,
2013-02-26 22:45:00,33.2,28.3,30.21,East,94,1.0,1.0,82,0.00,,,0.00,Wunderground v.1.15,2013-02-27 03:45:00,
2013-02-26 22:50:00,33.2,28.3,30.21,East,86,1.0,2.0,82,0.00,,,0.00,Wunderground v.1.15,2013-02-27 03:50:00,
2013-02-26 22:55:00,33.2,28.3,30.21,ESE,119,2.0,2.0,82,0.00,,,0.00,Wunderground v.1.15,2013-02-27 03:55:00,
2013-02-26 23:00:00,33.1,28.2,30.21,ESE,104,2.0,2.0,82,0.00,,,0.00,Wunderground v.1.15,2013-02-27 04:00:00,
2013-02-26 23:05:00,33.1,28.5,30.21,East,101,2.0,3.0,83,0.00,,,0.00,Wunderground v.1.15,2013-02-27 04:05:00,
2013-02-26 23:10:00,33.1,28.5,30.20,East,86,1.0,1.0,83,0.00,,,0.00,Wunderground v.1.15,2013-02-27 04:10:00,
2013-02-26 23:15:00,33.0,28.1,30.19,ESE,113,1.0,1.0,82,0.00,,,0.00,Wunderground v.1.15,2013-02-27 04:15:00,
2013-02-26 23:20:00,32.9,28.3,30.20,ESE,113,1.0,1.0,83,0.00,,,0.00,Wunderground v.1.15,2013-02-27 04:20:00,
2013-02-26 23:25:00,32.6,28.0,30.19,ESE,113,1.0,1.0,83,0.00,,,0.00,Wunderground v.1.15,2013-02-27 04:25:00,
2013-02-26 23:30:00,32.3,28.0,30.19,ESE,113,0.0,0.0,84,0.00,,,0.00,Wunderground v.1.15,2013-02-27 04:30:00,
2013-02-26 23:35:00,32.3,28.0,30.19,ESE,113,0.0,0.0,84,0.00,,,0.00,Wunderground v.1.15,2013-02-27 04:35:00,
2013-02-26 23:45:00,32.0,27.7,30.18,ESE,113,0.0,1.0,84,0.00,,,0.00,Wunderground v.1.15,2013-02-27 04:45:00,
2013-02-26 23:55:00,32.0,28.0,30.17,ESE,113,0.0,0.0,85,0.00,,,0.00,Wunderground v.1.15,2013-02-27 04:55:00,